Location: Saint Louis
(38.6272°N, 90.1978°W)
Time: 05:26:04
(UTC-05:00)

Hubble Space Telescope - Visible Passes

Search period start: 23 March 2017 00:00
Search period end: 02 April 2017 00:00
Orbit: 538 x 542 km, 28.5° (Epoch: 21 March)

Date Brightness Start Highest point End Pass type
(mag) Time Alt. Az. Time Alt. Az. Time Alt. Az.
24 Mar 3.3 06:21:52 10° S 06:23:17 12° SSE 06:24:43 10° SE visible
25 Mar 3.2 06:11:07 10° SSW 06:13:10 13° SSE 06:15:13 10° SE visible
26 Mar 3.0 06:00:38 10° SSW 06:03:03 15° SSE 06:05:28 10° SE visible
27 Mar 2.9 05:50:22 10° SSW 05:52:55 17° S 05:55:37 10° SE visible
28 Mar 2.7 05:40:53 14° SSW 05:42:49 18° S 05:45:41 10° SE visible
29 Mar 2.6 05:31:23 16° SSW 05:32:43 19° S 05:35:41 10° SE visible
30 Mar 2.4 05:21:53 19° SSW 05:22:37 20° S 05:25:39 10° SE visible
31 Mar 2.4 05:12:24 20° S 05:12:31 20° S 05:15:33 10° SE visible
01 Apr 2.5 05:02:57 19° S 05:02:57 19° S 05:05:26 10° SE visible
